sat.trackr.live / text

‹ back to catalog

STARLINK-32820

NORAD 63041 · 2025-034N

PAYLOAD ACTIVE UNKNOWN

§ Identity

Operator
Country
US
Launch date
2025-02-18
Launch site
AFETR
Launch vehicle
Mass (kg)
RCS (m²)

Purposes: comms

External: N2YO · Heavens-Above · Gunter

§ Orbital elements

Epoch: 2026-05-25T00:38:44.084832Z

Period
94.10 min
Inclination
53.1584°
Eccentricity
0.0001152
Mean motion
15.30214692 rev/d
Perigee alt
474.4 km
Apogee alt
476.0 km
Semi-major
6,853.3 km
B*
6.6093e-4
RAAN
263.5951°
Arg perigee
70.9840°
Mean anomaly
289.1285°
Rev number
7,077

§ Raw data

STARLINK-328201 63041U 25034N   26145.02689913  .00019275  00000+0  66093-3 0  99942 63041  53.1584 263.5951 0001152  70.9840 289.1285 15.30214692 70779

JSON: /api/v1/satellites/63041 · /tle

For live sub-satellite position, see the globe view (requires WebGL).

§ Visibility from observer

Set your observer location to see the next 7 days of passes ≥ 10°. The values pass through the URL so the page stays shareable.

No JS? Fill the form by hand. The geolocation button needs JavaScript.